Location: 10048 Water Well
(33.8501°N, 106.8364°W)
Time: 00:57:20
(UTC+00:00)

Cosmos 1627 Rocket - Pass Details

Date: 11 December 2025
Orbit: 951 x 1002 km, 82.9° (Epoch: 19 January)

Event Time Altitude Azimuth Distance (km) Brightness Sun altitude
Rises 12:20:05 0° 190° (S) 3,610 7.5 -20.7°
Reaches altitude 10° 12:22:34 10° 192° (SSW) 2,666 6.8 -20.2°
Maximum altitude 12:28:38 73° 276° (W) 993 4.3 -18.9°
Drops below altitude 10° 12:34:46 10° 2° (N) 2,687 6.7 -17.7°
Sets 12:37:17 0° 4° (N) 3,640 7.4 -17.2°
